RH
97 96 96 95 89 90 92 95 94 94 92 93 90 94 93 92 93 95 87 85 95 94 95 94 93 94 96 97 96 96 95 93 94 94 96 96 97 98 98 97 98 98 96
99 98 96 93 92 92 94 94 97 93 91 90 90 90 90 90 91 92 94 96 97 97 97 98 98 96 97 99 97 96 95 96 94 93 95 97 98 96 92 97 98 97 96
90 96 95 98 96 96 98 97 96 94 91 89 89 92 92 91 89 90 92 94 94 94 94 95 95 93 97 97 97 98 99 98 96 95 93 95 92 98 98 97 96 96 96
79 88 95 97 98 98 96 97 97 98 95 93 91 92 93 93 91 89 90 95 96 96 97 96 95 96 96 96 95 97 96 97 97 99 97 96 97 98 97 98 99 98 96
67 73 86 92 96 96 96 95 96 96 96 96 93 93 93 96 99 95 94 99 100 99 99 98 98 98 97 98 95 98 97 96 97 98 98 98 97 98 99 97 98 96 93
70 67 69 71 78 90 92 92 93 94 94 91 90 91 93 95 92 93 94 97 97 98 98 99 100 100 97 96 95 99 99 96 97 97 96 98 97 97 96 97 96 98 99
75 68 66 70 69 74 78 78 82 85 88 88 90 88 91 92 88 90 92 96 97 97 97 97 97 99 99 97 90 91 92 93 97 96 97 97 97 97 97 96 93 96 97
82 74 70 69 73 68 72 78 83 83 87 90 88 87 86 84 85 86 88 88 91 93 91 84 89 91 93 94 93 90 91 93 94 93 97 98 97 96 95 93 96 97 96
84 88 80 76 76 77 80 83 82 84 87 89 90 88 90 84 78 84 84 85 87 91 91 88 84 88 85 87 88 90 92 95 88 84 85 85 88 89 90 94 98 98 99
83 85 88 83 87 87 87 88 85 82 87 86 88 89 81 90 76 76 83 87 91 92 92 91 86 84 80 83 91 94 98 99 97 94 94 92 92 89 91 97 98 98 98
77 74 81 87 86 90 91 87 90 88 86 85 88 89 87 81 83 75 78 91 95 92 93 93 89 77 79 78 84 93 95 95 94 92 93 93 93 93 94 96 98 99 99
75 75 74 78 81 82 90 89 88 88 87 84 84 88 91 86 74 75 77 77 84 93 96 94 88 75 77 80 84 83 87 92 91 91 92 95 96 96 95 96 98 97 98
71 77 79 72 72 78 90 91 91 88 87 83 80 88 90 91 84 74 73 76 78 92 87 81 78 79 81 88 81 85 92 95 95 95 97 96 99 97 96 96 96 96 97
65 70 72 79 75 71 77 77 80 90 88 83 83 85 86 85 83 79 81 85 81 86 90 89 88 86 88 90 89 90 93 94 98 98 98 98 97 94 96 99 99 98 98
57 62 76 75 78 74 66 78 81 95 80 86 89 87 88 86 80 68 68 78 82 89 90 87 88 90 91 91 91 91 92 92 94 94 95 95 95 95 94 96 98 98 99
61 66 81 85 83 69 74 78 72 75 73 71 66 74 85 64 62 63 62 61 62 75 84 95 95 95 96 94 94 93 92 92 92 92 93 93 94 95 95 86 86 98 100
82 68 82 77 73 78 89 89 95 84 73 73 68 66 64 62 60 62 60 60 62 70 87 98 100 98 95 92 92 91 95 92 88 88 92 93 92 90 93 91 86 86 89
94 90 96 98 98 97 98 98 99 99 100 98 86 72 72 68 67 67 68 68 92 86 97 99 100 98 92 90 92 90 91 89 88 86 92 94 94 93 94 93 91 96 90
87 97 98 98 98 98 98 98 99 98 99 99 97 93 95 84 79 78 80 98 99 98 97 97 100 99 98 96 100 99 100 97 96 99 96 96 96 94 94 94 96 93 95
93 92 96 97 98 97 98 97 98 98 98 99 99 98 97 97 99 100 100 100 100 98 98 97 98 99 99 99 100 100 100 99 94 93 96 98 96 95 95 95 96 95 88
97 94 95 95 96 97 98 97 97 99 99 99 98 99 97 98 100 100 100 100 100 99 99 98 98 99 98 99 98 100 99 100 99 96 97 96 97 97 93 94 96 92 87
96 95 95 97 96 98 97 96 98 98 98 98 97 96 98 99 98 98 98 100 99 98 98 99 98 97 97 98 99 100 99 100 99 98 100 99 96 95 94 95 97 98 94
97 97 96 94 95 97 97 96 98 98 98 98 97 96 96 98 98 98 96 97 99 99 98 99 100 98 98 100 100 99 100 97 98 100 100 99 96 95 96 97 96 99 98
96 98 97 97 99 99 100 100 100 98 97 99 100 96 96 96 98 98 95 94 94 96 100 100 99 98 98 99 100 100 98 100 100 99 100 99 97 95 97 98 97 100 99
98 100 100 100 100 100 100 100 100 100 100 97 98 96 95 95 94 96 93 91 91 90 92 96 98 99 98 96 95 97 96 100 100 99 100 100 99 99 100 100 100 98 100
97 98 99 100 100 100 100 100 100 100 99 99 99 99 100 97 94 92 91 89 87 89 89 91 96 96 98 98 98 99 100 100 100 100 100 98 99 99 99 100 100 99 97
Wind_Speed
18 16 17 17 18 16 16 16 15 10 10 9 8 6 9 13 12 2 15 16 15 10 9 9 8 7 7 6 5 6 7 7 9 2 2 3 4 5 5 7 7 9 7
16 17 18 18 20 20 20 20 17 14 12 13 12 10 12 14 16 19 17 12 19 14 10 10 9 4 1 1 6 9 9 8 7 9 4 4 7 7 8 8 7 7 8
18 18 19 20 22 24 22 19 18 15 13 15 16 14 17 17 16 20 21 23 20 13 15 13 12 10 9 7 5 3 2 3 8 7 7 3 8 4 5 5 5 7 7
18 19 21 22 20 20 21 21 19 16 13 17 17 18 19 20 17 17 23 21 16 15 13 14 16 12 13 9 8 10 7 4 2 1 6 8 7 4 4 4 4 6 8
18 18 18 17 18 18 19 20 19 17 19 18 16 20 20 23 15 17 22 20 19 13 13 15 14 17 19 21 8 11 11 8 4 3 4 2 4 4 5 5 5 4 7
16 16 16 16 17 17 17 16 19 19 20 20 23 21 22 17 29 30 25 18 18 14 11 13 12 14 4 18 19 22 14 7 9 3 5 5 5 4 6 6 5 3 3
13 14 14 14 14 15 15 18 19 21 20 22 22 22 22 19 30 31 28 19 20 16 16 14 14 13 20 14 17 20 15 21 12 9 9 7 5 8 7 7 4 4 4
11 13 14 14 15 14 15 17 17 17 20 19 19 17 18 19 30 25 28 22 16 13 13 12 11 13 17 14 13 9 12 12 13 7 6 5 6 6 6 6 8 6 7
12 12 14 15 16 17 18 18 16 15 16 15 13 16 16 18 28 30 22 14 12 12 12 15 15 16 24 21 11 12 12 11 12 15 12 12 12 11 13 6 7 5 3
12 12 11 13 14 15 15 14 13 11 11 9 12 13 23 17 30 30 21 10 12 10 11 13 24 18 24 23 12 10 10 8 7 8 6 8 9 11 12 5 5 5 4
10 11 12 11 12 10 10 11 10 10 9 9 10 11 15 22 23 32 30 12 9 9 10 9 10 25 24 24 20 12 11 7 8 7 6 6 6 7 6 5 4 2 2
9 11 11 11 10 9 11 9 9 8 9 10 12 11 11 16 26 27 28 27 20 10 10 8 11 23 22 22 14 21 19 10 7 7 8 8 7 6 7 6 4 3 2
9 10 10 10 9 8 7 8 7 7 8 10 10 10 9 8 11 24 25 25 23 10 8 16 20 20 20 14 23 22 14 9 8 8 7 6 4 6 6 4 4 4 4
10 10 8 8 9 9 7 8 8 6 7 9 10 10 8 9 9 9 9 7 13 10 8 8 8 11 9 9 10 11 8 8 5 5 6 5 4 6 4 3 4 4 3
9 9 9 8 9 9 8 9 10 7 12 9 9 9 10 10 13 17 17 10 10 9 4 5 7 7 9 9 8 9 8 9 9 9 8 8 6 6 6 4 2 3 2
8 7 7 6 7 7 7 8 17 17 17 19 20 13 6 17 21 22 24 25 25 20 10 9 10 9 9 9 9 9 8 9 9 8 8 8 7 7 7 7 4 3 2
7 8 5 6 5 6 5 6 6 7 15 15 16 17 18 18 16 15 15 15 18 12 6 5 4 6 6 7 7 7 7 8 9 8 7 8 8 8 8 7 7 5 5
5 6 3 1 2 2 2 2 2 2 4 5 10 13 16 18 16 14 15 9 4 7 4 2 3 4 6 6 7 7 7 7 7 8 8 8 8 8 8 7 8 4 6
3 2 2 1 1 1 2 2 1 2 2 3 4 6 7 13 11 10 9 2 1 2 2 2 1 1 2 4 3 4 4 5 6 6 6 7 8 8 8 7 7 8 5
3 5 3 2 3 3 2 2 2 2 3 3 3 3 4 5 4 4 3 2 2 3 3 2 2 1 1 2 2 2 3 4 6 6 6 5 6 6 7 7 6 6 6
3 4 5 3 3 3 3 3 3 2 2 3 4 4 5 3 4 3 3 3 4 4 4 3 4 3 3 3 3 3 3 4 3 5 6 6 7 7 7 7 6 6 6
2 3 4 4 4 4 5 5 4 4 4 4 4 5 6 2 3 4 4 4 5 5 4 3 3 3 3 3 2 2 3 4 4 4 5 6 7 7 7 7 6 4 4
3 4 4 4 4 5 4 5 4 4 5 5 6 6 7 6 6 5 6 6 5 5 3 3 3 4 3 3 2 2 2 4 5 2 5 6 6 6 6 6 6 4 3
3 3 3 3 3 5 4 5 5 6 6 5 5 7 7 7 6 7 8 8 8 7 4 3 4 5 4 4 3 3 3 3 3 4 6 6 6 8 6 5 6 4 4
3 3 3 3 3 3 3 4 5 5 5 6 6 6 7 8 7 7 8 8 9 10 10 7 4 6 7 7 6 5 4 5 4 6 4 5 6 7 6 3 3 4 3
3 4 3 3 3 3 3 3 4 4 5 5 5 5 6 7 7 7 8 9 10 10 13 9 6 8 7 5 6 5 4 5 5 6 4 3 4 5 4 4 5 3 4
Wind_Direction
349 354 358 358 359 10 12 354 346 353 41 59 51 59 68 57 21 101 219 202 228 201 201 183 180 169 190 188 187 186 198 192 220 185 203 212 209 221 233 223 224 227 230
350 0 4 7 11 14 13 7 352 2 43 55 48 51 64 69 61 56 51 62 53 27 25 70 53 3 83 79 202 205 207 199 193 218 195 208 221 218 227 214 203 218 236
0 5 6 9 17 17 11 8 5 3 28 53 56 52 56 59 61 74 59 48 51 33 47 37 39 50 46 10 9 55 328 229 196 198 230 218 229 208 208 237 230 227 234
6 7 12 7 10 20 14 13 7 5 14 46 51 54 54 57 55 60 74 78 45 40 44 35 41 24 46 27 41 353 9 5 348 233 221 223 219 218 186 212 232 219 246
15 13 11 11 11 13 23 17 10 14 26 29 44 49 51 53 44 52 62 56 68 27 19 54 51 34 52 49 35 39 6 12 331 62 320 326 29 9 23 357 298 298 251
14 17 12 14 17 17 22 24 15 23 28 22 39 42 45 50 52 57 60 57 55 48 35 46 46 60 198 75 59 61 34 14 36 352 42 317 48 20 359 340 323 320 293
23 17 18 17 25 25 27 31 25 26 24 26 27 34 40 40 49 54 65 62 52 40 35 27 29 18 11 24 43 45 37 39 41 21 40 18 359 9 338 318 326 318 286
30 28 23 25 30 32 34 37 32 26 29 23 24 25 40 38 43 48 58 60 59 43 51 47 42 38 31 25 30 33 34 34 25 30 32 16 10 348 342 302 296 296 274
25 27 26 23 28 27 30 33 32 33 33 27 19 24 27 45 42 44 53 59 59 46 36 43 40 35 36 32 25 28 28 23 11 24 32 30 18 10 19 356 7 333 287
19 22 22 28 29 28 30 29 26 33 35 22 28 26 33 34 42 45 45 44 47 40 38 35 37 43 39 38 34 25 31 8 352 356 9 15 19 16 7 28 1 348 320
19 21 24 22 34 27 30 31 24 24 25 25 32 36 32 38 32 39 39 37 38 41 40 31 32 36 31 32 32 28 20 356 354 12 15 6 12 6 353 345 353 10 328
21 25 22 24 24 22 23 26 28 29 32 31 30 33 35 33 38 40 39 43 38 40 31 19 28 32 32 29 31 27 21 7 11 12 8 8 2 349 336 322 313 306 255
29 22 18 17 21 25 27 31 25 23 31 29 32 33 35 40 39 37 39 37 41 32 27 30 29 28 26 19 21 19 15 12 8 13 360 347 312 307 309 324 328 317 287
26 22 17 14 21 26 31 30 28 27 34 33 32 32 31 34 38 33 34 41 39 43 27 26 17 26 26 14 11 13 10 10 356 353 342 301 310 341 332 344 349 336 346
32 23 14 18 18 18 21 19 22 8 31 28 24 18 14 21 28 29 28 28 31 34 45 41 30 23 21 18 13 10 6 5 4 352 351 346 345 344 341 324 313 320 17
38 25 17 17 15 17 15 11 20 29 31 36 28 22 1 19 25 25 27 24 27 20 25 24 20 16 16 11 6 359 3 3 352 344 348 346 338 340 339 334 343 319 301
29 22 24 32 21 21 13 13 11 358 22 35 24 21 17 12 18 27 27 31 30 34 42 18 24 14 1 5 2 355 350 352 342 345 342 343 342 337 339 334 341 338 329
34 31 26 345 349 15 10 359 10 23 344 333 350 6 9 7 0 15 12 13 6 19 25 1 352 1 357 354 358 348 343 343 345 344 340 342 339 330 330 342 337 330 321
11 347 307 292 320 325 340 342 326 349 338 308 327 345 345 352 4 357 16 65 7 317 302 324 302 318 335 341 332 331 320 334 333 333 329 332 333 333 326 333 326 328 313
342 337 347 327 326 320 302 310 307 307 308 307 311 284 317 355 354 324 318 320 278 250 232 240 241 238 288 280 291 309 310 344 347 335 326 316 313 317 316 324 323 321 327
326 322 330 328 334 318 297 300 301 297 294 282 260 243 232 216 265 254 271 250 240 255 264 272 292 299 299 299 318 346 344 319 328 319 319 315 313 317 320 315 317 315 316
327 331 337 326 325 335 348 347 347 343 334 334 326 326 334 338 305 295 283 270 252 235 227 219 258 255 253 270 287 303 301 305 304 313 316 315 315 313 315 312 314 304 316
14 2 350 11 5 7 6 4 2 3 358 354 354 354 350 342 330 325 322 309 292 270 246 217 237 268 247 245 232 221 261 299 299 283 302 308 310 306 309 309 310 313 330
27 360 4 15 8 2 4 359 355 357 349 352 356 353 345 338 335 343 346 342 336 313 276 248 233 241 255 248 234 230 243 273 280 290 301 299 304 316 316 314 319 304 300
38 34 23 20 21 1 354 350 344 343 347 8 345 339 330 328 338 348 343 341 335 333 319 281 245 246 254 252 254 260 274 303 303 305 304 295 299 308 309 298 299 307 318
41 45 40 18 14 2 3 349 345 355 353 333 325 319 319 324 352 343 335 338 333 321 321 313 271 249 249 244 247 239 253 303 315 321 331 322 323 320 322 309 326 317 310